Regional Weather Roundup
Issued by NWS

Home | Current Version | Previous Version | Text Only | Print | Product List | Glossary Off
Versions: 1 2 3 4 5 6 7 8 9 10 11 12 13 14 15 16 17 18 19 20 21 22 23 24 25 26 27 28 29 30 31 32 33 34 35 36 37 38 39 40 41 42 43 44 45 46 47 48 49 50

470
ASUS43 KMPX 221110
RWRMN
WEATHER ROUNDUP FOR MINNESOTA
NATIONAL WEATHER SERVICE TWIN CITIES/CHANHASSEN MN
600 AM CDT MON MAY 22 2017


NOTE: "FAIR" INDICATES FEW OR NO CLOUDS BELOW 12,000 FEET WITH NO
SIGNIFICANT WEATHER AND/OR OBSTRUCTIONS TO VISIBILITY. N/A MEANS
CURRENT SKY AND/OR WEATHER CONDITIONS ARE NOT AVAILABLE.

MNZ060>063-068>070-221200-
   Twin Cities Metro

CITY           SKY/WX    TMP DP  RH WIND       PRES   REMARKS
TWIN CITIES    MOCLDY    46  41  82 SW7       29.87F
ST PAUL        PTCLDY    46  43  89 CALM      29.88F
CRYSTAL        MOCLDY    45  39  79 SW6       29.85F
BLAINE         CLEAR     45  45 100 SW5       29.86S
LAKEVILLE      CLEAR     43  43 100 CALM      29.88S
EDEN PRAIRIE   CLEAR     44  40  85 SW6       29.87S
SOUTH ST PAUL  MOCLDY    46  42  83 SW5       29.87S
LAKE ELMO      FAIR      43  41  93 SW5       29.87F
$$
MNZ001>005-007-008-013>017-022>024-027-028-221200-
   Northwest Minnesota

CITY           SKY/WX    TMP DP  RH WIND       PRES   REMARKS
BEMIDJI        DRIZZLE   43  43  98 W10       29.77F
HALLOCK        CLOUDY    46  45  93 NW12      29.81R
ROSEAU         CLOUDY    46  41  81 W3        29.78S
WARROAD        CLOUDY    45  41  87 W6        29.77S
THIEF RVR FALL CLOUDY    44  43  96 W8        29.82R
CROOKSTON      CLOUDY    45  45 100 W8        29.83S
FOSSTON        DRIZZLE   43  43 100 W12       29.82S
DETROIT LAKES  LGT RAIN  43  41  93 NW10      29.84S
MOORHEAD       CLOUDY    45  39  81 NW9       29.86F
PARK RAPIDS    CLOUDY    44  40  85 W12       29.80S
MAHNOMEN       DRIZZLE   43  42  95 W13       29.82F
$$
MNZ006-009>011-018-025>026-221200-
   North Central Minnesota

CITY           SKY/WX    TMP DP  RH WIND       PRES   REMARKS
BAUDETTE       CLOUDY    46  43  89 NW9       29.74S
FLAG ISLAND    CLOUDY    45  43  93 N14       29.75S
INTL FALLS     CLOUDY    44  42  93 W7        29.72S
WASKISH        CLOUDY    45  43  93 W12       29.76S
BIG FORK       DRIZZLE   45  43  93 W3        29.74S
LONGVILLE      CLOUDY    45  43  93 W6        29.77S
GRAND RAPIDS   CLOUDY    45  42  89 W7        29.77F
CRANE LAKE     DRIZZLE   43  43 100 CALM      29.72S
ORR            CLOUDY    43  41  93 W3        29.70S FOG
COOK           LGT RAIN  43  43 100 W7        29.72F VSB 1
WALKER         DRIZZLE   43  42  96 W8        29.78S
$$
MNZ012-019>021-037-221200-
   Northeast Minnesota

CITY           SKY/WX    TMP DP  RH WIND       PRES   REMARKS
DULUTH         CLOUDY    45  43  93 W9        29.75F
ELY            CLOUDY    43  43 100 W8        29.70S FOG
HIBBING        CLOUDY    43  42  97 SW3       29.74S
EVELETH        CLOUDY    44  41  91 SW7       29.74F
DULUTH HARBOR  CLOUDY    46  45  93 SW9       29.78S
TWO HARBORS    CLOUDY    48  43  81 W7        29.73S
SILVER BAY     CLOUDY    46  45  93 SW3       29.71S
GRAND MARAIS     N/A     40  40 100 SW8       29.70R
G MARAIS ARPRT CLOUDY    43  39  87 W5        29.68S
$$
MNZ029>031-032-039>041-046>048-054>057-064-221200-
   West Central Minnesota

CITY           SKY/WX    TMP DP  RH WIND       PRES   REMARKS
FERGUS FALLS   CLOUDY    39  39 100 NW5       29.86S
WHEATON        PTCLDY    41  39  93 CALM      29.90S
MORRIS         CLOUDY    39  37  93 W5        29.87S
ALEXANDRIA     CLEAR     41  39  93 W7        29.86F
ELBOW LAKE     FAIR      40  40  98 CALM      29.87S
WADENA         CLOUDY    43  39  87 W7        29.82F
GLENWOOD       PTCLDY    39  39 100 SW5       29.87S
APPLETON       CLEAR     37  36  93 NW3       29.88R
BENSON         MOCLDY    37  37 100 CALM      29.89S
ORTONVILLE     CLEAR     39  37  93 NW7       29.89R
MADISON        CLEAR     41  41 100 W5        29.88S
WILLMAR        FAIR      37  37 100 CALM      29.88F
$$
MNZ033>034-036-042>043-049>051-058-059-221200-
   Central Minnesota

CITY           SKY/WX    TMP DP  RH WIND       PRES   REMARKS
ST CLOUD       CLEAR     40  39  97 SW6       29.84F
SAUK CENTRE    FAIR      40  38  95 W7        29.85F
PAYNESVILLE    PTCLDY    38  38 100 SW5       29.87F
AITKIN         CLOUDY    45  41  87 W8        29.77F
PINE RIVER     CLOUDY    45  41  87 W5        29.83S
BRAINERD       CLOUDY    43  41  93 W9        29.81S
STAPLES        MOCLDY    43  41  93 W9        29.82S
LONG PRAIRIE   FAIR      39  37  93 SW5       29.85S
LITTLE FALLS   CLOUDY    41  37  87 W6        29.84S
LITCHFIELD     CLEAR     43  41  93 W3        29.87F
BUFFALO        MOCLDY    44  40  88 SW3       29.87F
MAPLE LAKE     PTCLDY    43  41  93 CALM      29.87F
HUTCHINSON     CLOUDY    40  39  97 CALM      29.88F
$$
MNZ037-044-045-052-053-221200-
   East Central Minnesota

CITY           SKY/WX    TMP DP  RH WIND       PRES   REMARKS
PRINCETON      CLEAR     43  41  93 SW5       29.85S
MORA           MOCLDY    41  37  87 SW3       29.84S
CAMBRIDGE      PTCLDY    45  39  81 S3        29.82F
RUSH CITY      PTCLDY    43  40  92 SW3       29.84S
MOOSE LAKE     CLOUDY    45  41  87 SW5       29.77S
HINCKLEY       FAIR      43  41  93 SW6       29.81F
CLOQUET        CLOUDY    45  41  87 SW7       29.76F
MCGREGOR       CLOUDY    45  43  93 W5        29.78S
$$
MNZ071>073-080-081-089-090-097-098-221200-
   Southwest Minnesota

CITY           SKY/WX    TMP DP  RH WIND       PRES   REMARKS
MONTEVIDEO     CLEAR     39  37  93 CALM      29.88R
CANBY          CLEAR     38  38  97 CALM      29.89R
MARSHALL       CLEAR     42  39  89 NW6       29.88S
REDWOOD FALLS  CLEAR     41  37  86 S3        29.87S
OLIVIA         CLEAR     39  37  93 CALM      29.86F
PIPESTONE      CLOUDY    45  39  81 W6        29.88S
WINDOM         PTCLDY    46  41  81 SW7       29.89R
WORTHINGTON    CLOUDY    47  42  83 SW9       29.88F
JACKSON        CLOUDY    45  41  87 CALM      29.89F
TRACY          MOCLDY    48  43  84 SW8       29.87F
SLAYTON        CLOUDY    47  41  82 SW3       29.89S
$$
MNZ065>067-074>077-082>085-091>093-221200-
   South Central Minnesota

CITY           SKY/WX    TMP DP  RH WIND       PRES   REMARKS
MANKATO        CLEAR     40  39  97 SE5       29.89F
NEW ULM        CLEAR     41  39  93 CALM      29.88S
ST JAMES       PTCLDY    43  39  87 CALM      29.89S
FAIRMONT       CLOUDY    47  42  83 SW9       29.89F
GLENCOE        CLEAR     42  42  99 CALM      29.87S
FARIBAULT      PTCLDY    43  39  87 CALM      29.89F
OWATONNA       CLEAR     43  39  87 S3        29.89F
WASECA         CLEAR     39  37  93 S3        29.90F
ALBERT LEA     CLEAR     46  43  87 SW7       29.89F
$$
MNZ078>079-086>088-094>096-221200-
   Southeast Minnesota

CITY           SKY/WX    TMP DP  RH WIND       PRES   REMARKS
ROCHESTER      CLEAR     41  39  93 S8        29.90F
RED WING       PTCLDY    46  39  76 W5        29.88F
STANTON        CLEAR     45  41  87 S5        29.88F
DODGE CENTER   PTCLDY    39  39 100 SW3       29.89F
WINONA         MOCLDY    48  43  81 CALM      29.91F
AUSTIN         CLEAR     39  37  93 S3        29.90F
PRESTON        CLEAR     41  38  89 SW7       29.92S
$$
ABBREVIATIONS USED IN REMARKS
   TC - TEMPERATURES IN CELSIUS
  WCI - WIND CHILL INDEX
   HX - HEAT INDEX
  VSB - VISIBILITY
$$




USA.gov is the U.S. government's official web portal to all federal, state and local government web resources and services.